Wind_Speed
40 39 36 33 31 29 26 23 21 21 19 17 16 15 14 13 12 10 9 8 8 7
37 36 33 31 29 27 24 21 21 19 17 16 14 14 12 11 11 10 9 8 8 8
33 33 31 28 26 25 24 23 21 18 17 15 14 13 12 11 11 10 9 8 8 8
28 29 28 28 27 26 25 24 20 18 17 17 15 13 12 11 10 10 9 8 9 8
24 27 28 28 27 26 26 23 21 21 18 16 15 13 11 10 9 9 8 9 9 9
24 27 28 27 26 27 24 22 21 18 16 15 13 12 10 9 8 8 9 9 10 10
25 27 27 26 24 20 19 18 17 17 16 14 12 11 9 10 10 10 10 10 11 11
25 24 20 18 17 17 17 18 17 16 14 13 14 15 14 11 9 10 13 12 12 12
19 18 19 21 22 21 20 18 18 19 18 17 17 15 13 12 10 9 11 11 10 11
17 18 17 15 16 15 16 17 16 16 17 16 12 11 8 6 8 10 11 11 12 12
13 14 14 14 15 16 16 16 15 14 12 11 11 10 8 7 10 11 10 10 11 13
11 12 13 14 14 13 13 13 12 11 10 10 9 7 7 9 9 10 9 10 10 13
10 11 12 12 12 12 12 11 10 10 9 8 6 6 8 8 9 8 9 10 12 14
9 9 9 10 10 10 10 10 9 8 7 7 8 8 9 9 7 9 9 11 13 13
Wind_Direction
227 226 225 224 221 219 219 217 217 219 220 222 225 231 232 237 241 244 248 255 262 268
227 225 222 219 218 217 214 216 217 219 222 224 229 233 233 236 238 241 245 253 262 270
227 223 218 216 217 214 212 214 215 220 225 229 234 233 232 232 234 236 241 251 262 270
227 219 211 212 211 212 214 215 214 223 227 229 230 230 232 231 233 236 245 254 262 270
222 210 207 205 205 205 204 212 216 219 219 222 226 227 227 230 235 242 250 259 267 272
207 198 192 199 197 200 208 206 209 212 217 221 220 218 219 224 236 252 259 263 270 275
189 183 196 195 197 194 195 201 207 210 211 211 210 210 220 243 252 259 265 273 281 285
182 192 190 184 182 191 202 207 208 206 209 217 224 239 246 245 233 255 272 275 276 280
183 178 181 187 191 196 204 210 220 226 224 232 237 228 219 235 245 260 274 282 281 287
190 191 193 201 206 210 211 214 224 233 234 230 225 220 207 216 240 254 274 279 287 293
193 195 197 201 206 215 227 232 232 227 218 218 215 205 204 221 245 257 265 274 285 293
201 203 208 218 220 222 221 217 211 210 208 205 200 196 210 227 236 257 267 280 284 296
208 212 216 219 218 214 207 206 202 202 199 204 214 226 226 215 251 268 285 287 296 303
225 224 221 217 213 209 204 200 197 199 202 209 225 232 230 224 232 277 294 299 300 297
Height
1439 1444 1449 1455 1460 1464 1468 1471 1474 1477 1480 1481 1484 1485 1487 1488 1489 1490 1491 1491 1491 1490
1433 1439 1446 1451 1456 1461 1466 1470 1473 1476 1479 1480 1482 1483 1484 1485 1486 1487 1488 1488 1488 1489
1429 1435 1441 1447 1453 1458 1462 1466 1470 1474 1477 1479 1480 1481 1482 1482 1483 1484 1484 1485 1485 1486
1428 1433 1439 1444 1448 1453 1458 1462 1466 1470 1473 1476 1478 1479 1480 1480 1481 1482 1482 1483 1483 1483
1428 1432 1436 1441 1445 1450 1454 1458 1463 1467 1470 1472 1473 1475 1477 1478 1479 1480 1480 1480 1480 1480
1426 1431 1435 1439 1444 1447 1450 1456 1460 1463 1466 1469 1470 1471 1473 1476 1477 1477 1478 1477 1477 1476
1426 1429 1433 1437 1442 1447 1451 1454 1458 1459 1462 1464 1466 1468 1470 1472 1474 1475 1475 1475 1474 1473
1425 1430 1433 1438 1443 1447 1451 1453 1455 1456 1458 1461 1463 1465 1467 1468 1469 1471 1472 1472 1471 1470
1427 1430 1433 1436 1440 1444 1447 1450 1453 1455 1456 1457 1459 1459 1462 1464 1465 1467 1468 1468 1468 1467
1428 1430 1433 1437 1440 1443 1446 1448 1450 1451 1451 1453 1454 1456 1458 1461 1462 1462 1463 1465 1464 1463
1430 1433 1434 1437 1440 1442 1443 1445 1446 1448 1449 1450 1451 1453 1455 1457 1460 1459 1459 1459 1460 1460
1431 1433 1434 1436 1438 1439 1440 1442 1443 1444 1446 1448 1449 1450 1452 1454 1458 1458 1455 1456 1455 1455
1431 1432 1433 1435 1436 1437 1438 1440 1441 1442 1444 1446 1447 1449 1452 1454 1456 1453 1451 1452 1451 1451
1431 1431 1432 1432 1434 1435 1437 1437 1439 1441 1442 1444 1446 1448 1451 1452 1449 1448 1448 1448 1449 1448